Regional Weather Roundup
Issued by NWS Austin/San Antonio, TX

Home | Current Version | Previous Version | Text Only | Print | Product List | Glossary On
Versions: 1 2 3 4 5 6 7 8 9 10 11 12 13 14 15 16 17 18 19 20 21 22 23 24 25 26 27 28 29 30 31 32 33 34 35 36 37 38 39 40 41 42 43 44 45 46 47 48 49 50
000
ASUS44 KEWX 221610
RWREWX
SOUTH TEXAS REGIONAL WEATHER ROUNDUP
NATIONAL WEATHER SERVICE AUSTIN/SAN ANTONIO TX
1000 AM CST THU FEB 22 2018

NOTE: "FAIR" INDICATED FEW OR NO CLOUDS BELOW 12,000 FEET WITH NO
SIGNIFICANT WEATHER AND/OR OBSTRUCTIONS TO VISIBILITY.

* - THESE STATIONS ARE NOT NWS OR FAA STATIONS...AND ARE NOT SUBJECT
    TO NWS AND FAA QUALITY CONTROL.

TXZ171-172-183>190-221700-
TEXAS HILL COUNTRY AND EDWARDS PLATEAU

CITY           SKY/WX    TMP DP  RH WIND       PRES   REMARKS
JUNCTION       NOT AVBL
*LLANO         CLOUDY    36  34  93 NW7       30.31S WCI  30
BURNET         CLOUDY    35  35 100 N7        30.27S FOG     WCI  29
*HORSESHOE BAY DRIZZLE   36  36 100 NW7       30.28S WCI  30
*KERRVILLE     CLOUDY    36  34  92 NW6       30.24S FOG     WCI  31
*FREDERICKSBRG CLOUDY    34  33  96 CALM      30.25R FOG
*ROCKSPRINGS   FOG       36  36 100 E7        30.25S VSB 1   WCI  30
*BOERNE STAGE  CLOUDY    37  37 100 N6        30.25S WCI  33
*CASTROVILLE   CLOUDY    45  45 100 NE5       30.26S FOG     WCI  42
HONDO          CLOUDY    47  45  93 N9        30.25S WCI  43
*UVALDE        CLOUDY    44  43  95 N6        30.25F WCI  41
DEL RIO        CLOUDY    43  38  82 NW8       30.25R WCI  38
LAUGHLIN AFB   CLOUDY    42  39  89 NW7       30.25R WCI  38
CARRIZO SPRGS  CLOUDY    45  45 100 NE3       30.24F
*EAGLE PASS    PTSUNNY   45  41  87 NW6       30.26R WCI  41
*FAITH RANCH   CLOUDY    46  46 100 CALM      30.26R
$$

TXZ173-191>194-202-209-217>225-228-221700-
CENTRAL AND SOUTH CENTRAL TEXAS

CITY           SKY/WX    TMP DP  RH WIND       PRES   REMARKS
GEORGETOWN     CLOUDY    36  35  96 NW7       30.29R FOG     WCI  30
AUSTIN/BERGSTM CLOUDY    39  39 100 N13       30.27R FOG     WCI  31
AUSTIN/MABRY   CLOUDY    38  37  97 N5        30.28S FOG     WCI  34
*AUSTIN/EXEC   NOT AVBL
*LAGO VISTA    LGT SNOW  37  37 100 N5        30.26R WCI  33
SAN MARCOS     CLOUDY    39  38  96 N13       30.27R FOG     WCI  31
NEW BRAUNFELS  FOG       41  39  93 N12       30.24R VSB 1   WCI  34
RANDOLPH AFB   FOG       42  40  95 N8        30.25R VSB 1   WCI  37
PT SAN ANTONIO CLOUDY    45  43  93 N8        30.22F WCI  40
SAN ANTONIO    LGT RAIN  42  41  96 N8        30.25R VSB 1   WCI  37
STINSON FIELD  CLOUDY    45  43  93 N6        30.23F FOG     WCI  42
*LA GRANGE     CLOUDY    42  42  98 N8        30.23F FOG     WCI  37
*GIDDINGS      CLOUDY    37  37  99 N7        30.26F FOG     WCI  32
*GONZALES      CLOUDY    42  42 100 N7        30.25S FOG     WCI  37
$$

TXZ163>164-176>182-195>201-210>213-226-227-235-221700-
SOUTHEAST TEXAS

CITY           SKY/WX    TMP DP  RH WIND       PRES   REMARKS
COLLEGE STN    CLOUDY    43  43 100 NW7       30.26S FOG     WCI  39
*BRYAN         CLOUDY    42  42 100 N5        30.28R FOG     WCI  39
*CALDWELL      CLOUDY    40  39  97 N8        30.27S FOG     WCI  35
*CROCKETT      CLOUDY    48  48 100 CALM      30.27R FOG
*BRENHAM       CLOUDY    45  45 100 N9        30.27R FOG     WCI  40
HUNTSVILLE     FOG       47  45  93 VRB3      30.23F VSB 3/4
CONROE         FOG       53  53 100 NE3       30.22F VSB 1
HOUSTON BUSH   FOG       59  58  96 NE5       30.22S VSB 1/2
HOUSTON HOBBY  LGT RAIN  61  61 100 NE3       30.21S FOG
*HOUSTON SW AP LGT RAIN  58  58 100 NE3       30.22S
PEARLAND       LGT RAIN  61  61 100 NE5       30.22S FOG
HOUSTON HOOKS  CLOUDY    54  54 100 NW5       30.23S FOG
ELLINGTON FLD  FOG       63  63 100 N2        30.22S VSB 1/2
SUGAR LAND     FOG       59  58  96 N5        30.21S VSB 1/2
*HOUSTON EXEC  FOG       50  50 100 N8        30.24S VSB 1/2 WCI  47
*CLEVELAND MUN FOG       57  56  97 CALM      30.23S VSB 1
*WHARTON       FOG       51  50  97 N7        30.24R VSB 3/4
*COLUMBUS      FOG       45  44  95 N9        30.25S VSB 1   WCI  41
*EAGLE LAKE    FOG       48  48 100 N8        30.23S VSB 1   WCI  44
$$

TXZ214>216-236>238-221700-
THE UPPER TEXAS COAST

CITY           SKY/WX    TMP DP  RH WIND       PRES   REMARKS
*ORANGE        CLOUDY    77  73  86 S12G20    30.24S
PORT ARTHUR    PTSUNNY   78  70  76 S15G22    30.22R
GALVESTON      CLOUDY    72  71  97 S9        30.22R FOG
ANGLETON       LGT RAIN  61  59  93 N3        30.21R FOG
*BAY CITY      CLOUDY    58  58 100 N3        30.21R FOG
PALACIOS       FOG       57  57 100 N9        30.20S VSB 1/2
$$

TXZ229>234-239>247-221700-
TEXAS COASTAL BEND AND RIO GRANDE PLAINS

CITY           SKY/WX    TMP DP  RH WIND       PRES   REMARKS
VICTORIA       CLOUDY    49  48  97 N9        30.22S FOG     WCI  45
*BEEVILLE      CLOUDY    46  46 100 N9        30.23S FOG     WCI  42
ROCKPORT       CLOUDY    54  54 100 N9        30.21R FOG
*PORT ARANSAS  NOT AVBL
*PORT LAVACA   FOG       51  50  97 N9        30.22R VSB 3/4
*INGLESIDE     CLOUDY    55  53  95 MISG      30.21R FOG
CORPUS CHRISTI DRIZZLE   53  53 100 N9        30.21S FOG
CORPUS NAS     DRIZZLE   55  55 100 N9        30.20S FOG
*ROBSTOWN      CLOUDY    51  51  99 N10       30.22S FOG
ALICE          CLOUDY    49  48  97 NW12      30.22R WCI  44
KINGSVILLE NAS CLOUDY    53  52  96 N8        30.22S FOG
COTULLA        CLOUDY    48  47  96 N6        30.25R WCI  45
LAREDO         CLOUDY    48  46  93 N8        30.25R WCI  44
$$

TXZ248>255-221700-
DEEP SOUTH TEXAS

CITY           SKY/WX    TMP DP  RH WIND       PRES   REMARKS
BROWNSVILLE    CLOUDY    54  53  97 NW9       30.21R FOG
PORT ISABEL    CLOUDY    54  51  90 NW10      30.20R FOG
*SOUTH PADRE   NOT AVBL
HARLINGEN      CLOUDY    52  52 100 NW10      30.20S FOG
*HEBBRONVILLE  CLOUDY    48  47  97 N6        30.23S FOG     WCI  46
MCALLEN        CLOUDY    54  52  93 NW10      30.23R
*WESLACO       CLOUDY    51  50  95 N7        30.21F FOG
FALFURRIAS     CLOUDY    52  50  93 CALM      30.23R
EDINBURG       CLOUDY    53  51  93 NW7       30.23R FOG
*ZAPATA        CLOUDY    48  47  96 NW9       30.23S WCI  44
$$

TXZ213>215-236>238-242>244-246-247-251-254-255-221700-
CMAN STATIONS

STATION/POSITION TIME  TEMP    WIND        PRES    WAVE
                       AIR SEA DIR/SP/G            HT/PER
                 (UTC) (F)     (DEG/KT/KT) (MB)    (FT/S)
SABINE PASS      1548   71 70  140/ 13/ 16 1025.0
SEA RIM ST PARK  1600   71     140/ 10/ 13 1023.8
NORTH JETTY/GLS  1548      65  140/ 12/ 14 1022.7
EAGLE POINT      1548   65 68   50/  3/  3 1023.3
MORGANS POINT    1548   64 65   60/  2/  3 1023.1
PORT O`CONNOR    1548   57 61   10/ 10/ 11 1022.5
MALAQUITE BEACH  1548   86 64  320/  9/ 11 1022.4
BAFFIN BAY       1548   51 65  340/ 10/ 11 1023.1
PORT ISABEL      1548   54 66  320/  9/ 12 1022.4
$$



USA.gov is the U.S. government's official web portal to all federal, state and local government web resources and services.